[ hide orbit diagram ]
For accurate long-term ephemerides, please instead use our Horizons system.This orbit viewer was implemented using two-body methods, and hence should not be used for determining accurate long-term trajectories (over several years or decades) or planetary encounter circumstances.
Orbital Elements at Epoch 2459000.5 (2020-May-31.0) TDB
Reference: JPL 94 (heliocentric ecliptic J2000)
Element | Value | Uncertainty (1-sigma) | Units |
e | .1881465180110491 | 2.625e-08 | |
a | 3.164757232389118 | 6.304e-09 | au |
q | 2.56931917876482 | 8.4503e-08 | au |
i | 15.93904424774312 | 3.1068e-06 | deg |
node | 107.5953487096132 | 9.914e-06 | deg |
peri | 337.3575872432733 | 1.222e-05 | deg |
M | 44.0840754124049 | 8.0005e-06 | deg |
tp | 2458748.681133756845 (2019-Sep-22.18113376) | 4.533e-05 | TDB |
period | 2056.406786338685 5.63 | 6.1444e-06 1.682e-08 | d yr |
n | .1750626395475768 | 5.2307e-10 | deg/d |
Q | 3.760195286013415 | 7.4901e-09 | au |
|
| | Orbit Determination Parameters
Additional Information
|
[ show covariance matrix ]
Physical Parameter Table
Parameter |
Symbol |
Value |
Units |
Sigma |
Reference |
Notes |
absolute magnitude |
H |
6.3 |
|
n/a |
MPO492755 |
IRAS observations used: 22 |
magnitude slope |
G |
0.16 |
|
n/a |
PDS3 (MPC 17259) |
Fit |
diameter |
diameter |
270.327 |
km |
1.045 |
urn:nasa:pds:neowise_diameters_albedos::2.0[mainbelt] (http://adsabs.harvard.edu/abs/2014ApJ...791..121M) |
|
rotation period |
rot_per |
5.1297 |
h |
n/a |
LCDB (Rev. 2020-October); Warner et al., 2009 |
Published Reference List: [Groeneveld, I.; Kuiper, G.P. (1954) Astrophys. J. 120, 200-220.] [Gehrels, T.; Owings, D. (1962) Astrophys. J. 135, 906-924.] [Chang, Y.C.; Chang, C.-s. (1963) Acta Astron. Sin. 11, 139-149.] [Di Martino, M.; Zappala, V.; De Campos, J.A.; Debehogne, H.; Lagerkvist, C.-I. (1987) Astron. Astrophys. Suppl. Ser. 67, 95-101.] [Weidenschilling, S.J.; Chapman, C.R.; Davis, D.R.; Greenberg, R.; et al. (1987) Icarus 70, 191-245.] [Drummond, J.D.; Weidenschilling, S.J.; Chapman, C.R.; Davis, D.R. (1988) Icarus 76, 19-77.] [Magnusson, P. (1990) Icarus 85, 229-240.] [Drummond, J.D.; Weidenschilling, S.J.; Chapman, C.R.; Davis, D.R. (1991) Icarus 89, 44-64.] [Michalowski, T. (1993) Icarus 106, 563-572.] [De Angelis, G. (1995) Planet. Space Sci. 43, 649-682.] [Torppa, J.; Kaasalainen, M.; Michalowski, T.; Kwiatkowski, T.; et al. (2003) Icarus 164, 346-383.] [Behrend, R. (2005) Observatoire de Geneve web site, http://obswww.unige.ch/~behrend/page_cou.html] [Marchis, F.; Kaasalainen, M.; Hom, E.F.Y.; Berthier, J.; et al. (2006) Icarus 185, 39-63.] [Alton, K.B. (2009) Minor Planet Bull. 36, 144-145.] [Behrend, R. (2010) Observatoire de Geneve web site, http://obswww.unige.ch/~behrend/page_cou.html] [Garlitz, J. (2013) Posting on CALL web site. http://www.minorplanet.info/call.html] [Behrend, R. (2015) Observatoire de Geneve web site, http://obswww.unige.ch/~behrend/page_cou.html] [Hanus, J.; Durech, J.; Oszkiewicz, D.A.; Behrend, R.; et al. (2016) Astron. Astrophys. 586, A108.] [Viikinkoski, M.; Hanus, J.; Kaasalainen, M.; Marchis, F.; Durech, J. (2017) Astron. Astrophys. 607, A117.] [Cellino, A.; Hestroffer, D.; Lu, X.-P.; Muinonen, K.; Tanga, P. (2019) Astron. Astrophys. 631, A67.] |
geometric albedo |
albedo |
0.076 |
|
0.007 |
urn:nasa:pds:neowise_diameters_albedos::2.0[mainbelt] (http://adsabs.harvard.edu/abs/2014ApJ...791..121M) |
|
B-V |
BV |
0.717 |
|
0.013 |
EAR-A-5-DDR-UBV-MEAN-VALUES-V1.2 |
#obs=23; phase (min.=1.78, mean=10.93, max.=20.90) deg. |
U-B |
UB |
0.363 |
|
0.020 |
EAR-A-5-DDR-UBV-MEAN-VALUES-V1.2 |
#obs=11; phase (min.=1.53, mean=8.22, max.=17.13) deg. |
Tholen spectral type |
spec_T |
C |
|
n/a |
EAR-A-5-DDR-TAXONOMY-V4.0 |
used 7 color indices; used ground-based radiometric albedo |
SMASSII spectral type |
spec_B |
C |
|
n/a |
EAR-A-5-DDR-TAXONOMY-V4.0 |
based on a high-resolution spectrum by Xu et al. (1995) or Bus and Binzel (2002) |
|
511 Davida (A903 KB) Discovered 1903-May-30 by Dugan, R. S. at Heidelberg |
Reference: DISCOVERY.DB | Last Updated: 2003-08-29 |
|
[ show close-approach data ]
|